Location: Musselshell
(46.5176°N, 108.0911°W)
Time: 10:39:16
(UTC+00:00)

YUBILEINY - Pass Details

Date: 05 July 2022
Orbit: 1478 x 1509 km, 82.5° (Epoch: 13 August)

Event Time Altitude Azimuth Distance (km) Brightness Sun altitude
Rises 10:16:28 0° 352° (N) 4,651 ? -9.7°
Reaches altitude 10° 10:19:31 10° 358° (N) 3,663 ? -9.4°
Maximum altitude 10:28:04 51° 73° (ENE) 1,817 ? -8.4°
Drops below altitude 10° 10:36:29 10° 148° (SSE) 3,622 ? -7.4°
Sets 10:39:28 0° 153° (SSE) 4,594 ? -7.0°
